This is the latest recevied weather packets stored in our database for station/object W0DXV. If no packets are shown the sender has not sent any weather packets the latest 10 day(s).
| Time | Temp. | Humidity | Pressure | Rain* | Wind** | Luminosity | Snow |
|---|---|---|---|---|---|---|---|
| 1778003996 | 26.11° C | 36% | 1011.8 hPa | 0 mm | - | 758 W/m² | - |
| 1778003692 | 26.11° C | 36% | 1011.8 hPa | 0 mm | - | 732 W/m² | - |
| 1778003389 | 25.56° C | 35% | 1011.6 hPa | 0 mm | - | 762 W/m² | - |
| 1778003086 | 26.11° C | 35% | 1011.7 hPa | 0 mm | - | 760 W/m² | - |
| 1778002782 | 26.11° C | 36% | 1011.6 hPa | 0 mm | - | 789 W/m² | - |
| 1778002478 | 26.11° C | 36% | 1011.8 hPa | 0 mm | - | 758 W/m² | - |
| 1778002175 | 26.11° C | 38% | 1011.6 hPa | 0 mm | - | 760 W/m² | - |
| 1778001874 | 25.56° C | 37% | 1011.6 hPa | 0 mm | - | 584 W/m² | - |
| 1778001573 | 25.56° C | 38% | 1011.8 hPa | 0 mm | - | 740 W/m² | - |
| 1778001270 | 25.56° C | 38% | 1011.9 hPa | 0 mm | - | 776 W/m² | - |
| 1778000967 | 25.56° C | 38% | 1011.9 hPa | 0 mm | - | 672 W/m² | - |
| 1778000663 | 25° C | 39% | 1011.9 hPa | 0 mm | - | 709 W/m² | - |
| 1778000359 | 25° C | 39% | 1012.2 hPa | 0 mm | - | 631 W/m² | - |
| 1778000055 | 25° C | 40% | 1012.2 hPa | 0 mm | - | 607 W/m² | - |
| 1777999750 | 25° C | 38% | 1012.3 hPa | 0 mm | - | 647 W/m² | - |
| 1777999447 | 25° C | 39% | 1012 hPa | 0 mm | - | 599 W/m² | - |
| 1777999145 | 25° C | 37% | 1012.2 hPa | 0 mm | - | 601 W/m² | - |
| 1777998844 | 25° C | 39% | 1012.1 hPa | 0 mm | - | 595 W/m² | - |
| 1777998543 | 25° C | 42% | 1012.1 hPa | 0 mm | - | 587 W/m² | - |
| 1777998238 | 25° C | 43% | 1012.4 hPa | 0 mm | - | 620 W/m² | - |
| 1777997935 | 25° C | 43% | 1012.4 hPa | 0 mm | - | 636 W/m² | - |
| 1777997632 | 25° C | 43% | 1012.3 hPa | 0 mm | - | 636 W/m² | - |
| 1777997329 | 25° C | 46% | 1012.5 hPa | 0 mm | - | 649 W/m² | - |
| 1777997028 | 24.44° C | 44% | 1012.8 hPa | 0 mm | - | 674 W/m² | - |
| 1777996723 | 24.44° C | 45% | 1012.6 hPa | 0 mm | - | 651 W/m² | - |
* Rain latest hour (hover to see other rain measurements)
** Current wind speed in m/s (hover to see current wind gust speed)